Погода в Ульянове

Россия / Калининградская область     54°49′37″N   22°05′22″E
темп.,
°C
ветер,
м/с
пор.,
м/с
влажн.,
%
обл.,
%
осадки,
мм/ч
давл.,
гПа
погр.,
м
28 сентября, вт
вт2823:00+7вюв49905 0.0 1026201
02:00+6вюв48932 0.0 1026159
05:00+6вюв48925 0.0 1026160
08:00+8вюв410795 0.0 1027277
11:00+14юв67567 0.0 10271180
14:00+16юв674926 0.0 10271531
17:00+14юв585766 0.0 1027591
20:00+9вюв41078100 0.0 1028181
29 сентября, ср
ср2923:00+8вюв4108492 0.0 1029208
02:00+7юв41086100 0.0 1029203
05:00+6вюв4108870 0.0 1029213
08:00+8вюв411835 0.0 1029308
11:00+14юв79605 0.0 1029949
14:00+15юв795121 0.0 10271526
17:00+14юв610605 0.0 10261043
20:00+10вюв6147331 0.0 1026508
30 сентября, чт
чт3023:00+10юв7157052 0.0 1026534
02:00+9юв7157149 0.0 1025506
05:00+9юв61571100 0.0 1024506
08:00+10ююв51166100 0.0 1025642
11:00+9ююв4983100 0.4 1026434
14:00+9ююв4889100 0.9 1026337
17:00+10ю3593100 1.7 1027233
20:00+8ю359687 1.7 102874
1 октября, пт
пт123:00+8ююз339198 0.0 102929
02:00+7ююз2286100 0.0 102925
05:00+6ююз2285100 0.0 102923
08:00+7ю34833 0.0 1030104
11:00+13ююз34590 0.0 1030546
14:00+16ю454436 0.0 10291424
17:00+13ююв3557100 0.0 102894
20:00+10ююв356784 0.0 102876
2 октября, сб
сб223:00+8ююв499398 0.0 1027171
02:00+8юв399589 0.0 1026172
05:00+7юв41085100 0.0 1024200
08:00+9ююв5126876 0.0 1023341
11:00+14ююв6115098 0.0 1022511
14:00+17ююв7104643 0.0 1020848
17:00+15ююв612597 0.0 1019738
20:00+12ююв6156819 0.0 1019404